This is the latest recevied weather packets stored in our database for station/object KC1BRV. If no packets are shown the sender has not sent any weather packets the latest 10 day(s).
| Time | Temp. | Humidity | Pressure | Rain* | Wind** | Luminosity | Snow |
|---|---|---|---|---|---|---|---|
| 1788269509 | 19.44° C | 97% | 1018.3 hPa | 3.05 mm | - | 41 W/m² | - |
| 1788269203 | 19.44° C | 97% | 1018.1 hPa | 3.05 mm | - | 62 W/m² | - |
| 1788268897 | 19.44° C | 97% | 1018.3 hPa | 6.6 mm | - | 46 W/m² | - |
| 1788268597 | 19.44° C | 97% | 1018.4 hPa | 8.89 mm | - | 48 W/m² | - |
| 1788268291 | 19.44° C | 97% | 1018.5 hPa | 7.11 mm | - | 51 W/m² | - |
| 1788267987 | 19.44° C | 97% | 1018.7 hPa | 4.83 mm | - | 35 W/m² | - |
| 1788267685 | 19.44° C | 97% | 1018.5 hPa | 3.05 mm | - | 28 W/m² | - |
| 1788267384 | 19.44° C | 96% | 1018.5 hPa | 4.32 mm | - | 24 W/m² | - |
| 1788267080 | 19.44° C | 96% | 1018.5 hPa | 7.87 mm | - | 20 W/m² | - |
| 1788266780 | 19.44° C | 96% | 1018.4 hPa | 6.6 mm | - | 18 W/m² | - |
| 1788266474 | 19.44° C | 96% | 1018.4 hPa | 6.1 mm | - | 17 W/m² | - |
| 1788266174 | 19.44° C | 95% | 1018.4 hPa | 6.1 mm | - | 24 W/m² | - |
| 1788265874 | 19.44° C | 95% | 1018.4 hPa | 6.1 mm | - | 12 W/m² | - |
| 1788265573 | 19.44° C | 95% | 1018.7 hPa | 6.1 mm | - | 11 W/m² | - |
| 1788265273 | 19.44° C | 95% | 1018.7 hPa | 3.05 mm | - | 14 W/m² | - |
| 1788264967 | 19.44° C | 94% | 1018.7 hPa | 0 mm | - | 17 W/m² | - |
| 1788264663 | 19.44° C | 94% | 1018.6 hPa | 0 mm | - | 17 W/m² | - |
| 1788264357 | 19.44° C | 94% | 1018.6 hPa | 0 mm | - | 10 W/m² | - |
| 1788264053 | 19.44° C | 94% | 1018.6 hPa | 0 mm | - | 16 W/m² | - |
| 1788263753 | 19.44° C | 94% | 1018.4 hPa | 0 mm | - | 20 W/m² | - |
| 1788263450 | 19.44° C | 94% | 1018.4 hPa | 0 mm | - | 26 W/m² | - |
| 1788263146 | 19.44° C | 94% | 1018.6 hPa | 0 mm | - | 30 W/m² | - |
| 1788262845 | 19.44° C | 94% | 1018.5 hPa | 0 mm | - | 24 W/m² | - |
| 1788262543 | 19.44° C | 94% | 1018.3 hPa | 0 mm | - | 25 W/m² | - |
| 1788262234 | 19.44° C | 94% | 1018.4 hPa | 0 mm | - | 18 W/m² | - |
* Rain latest hour (hover to see other rain measurements)
** Current wind speed in m/s (hover to see current wind gust speed)